Lynchburg, VA

5:44 PM EST on December 03, 2016 (GMT -0500)
Lynchburg Regional-Glenn

Weather History for KLYH - January, 2013

Change the Weather History Date:

Tuesday, January 15, 2013

  Actual Average Record
Temperature  
Mean Temperature 41 °F 35 °F  
Max Temperature 44 °F 45 °F 75 °F (1932)
Min Temperature 37 °F 25 °F 5 °F (1994)
Degree Days  
Heating Degree Days 24 30  
Month to date heating degree days 329 450  
Since 1 July heating degree days 1967 2195  
Cooling Degree Days 0 0  
Month to date cooling degree days 0 0  
Year to date cooling degree days 0 0  
Moisture  
Dew Point 39 °F    
Average Humidity 96    
Maximum Humidity 100    
Minimum Humidity 92    
Precipitation  
Precipitation 1.59 in 0.11 in 2.03 in (1995)
Month to date precipitation 2.64 1.50  
Year to date precipitation 2.64 1.50  
Snow  
Snow 0.00 in - - ()
Month to date snowfall 0.0  
Since 1 July snowfall T  
Snow Depth 0.00 in    
Sea Level Pressure  
Sea Level Pressure 30.22 in    
Wind  
Wind Speed 9 mph (NE)    
Max Wind Speed 15 mph    
Max Gust Speed 21 mph    
Visibility 7 miles    
Events Rain    
T = Trace of Precipitation, MM = Missing Value Source: NWS Daily Summary

Daily Weather History Graph

Daily Weather History Graph

Search for Another Location

Airport or City:

Trip Planner

Search our weather history database for the weather conditions in past years. The results will help you decide how hot, cold, wet, or windy it might be!

Date:

Astronomy

Jan. 15, 2013 Rise Set
Actual Time 7:29 AM EST 5:23 PM EST
Civil Twilight 7:01 AM EST 5:51 PM EST
Nautical Twilight 6:29 AM EST 6:23 PM EST
Astronomical Twilight 5:58 AM EST 6:55 PM EST
Moon 9:41 AM EST (1/15) 10:03 PM EST (1/15)
Length of Visible Light 10h 50m
Length of Day
9h 53m
Waxing Crescent, 19% of the Moon is Illuminated
Jan 15
Waxing Crescent
Jan 18
First Quarter
Jan 26
Full
Feb 3
Last Quarter
Feb 10
New

Hourly Weather History & Observations

Time (EST) Temp. Windchill Dew Point Humidity Pressure Visibility Wind Dir Wind Speed Gust Speed Precip Events Conditions
12:54 AM 43.0 °F 39.5 °F 42.1 °F 97% 30.24 in 5.0 mi ENE 5.8 mph - 0.08 in Rain Light Rain
1:54 AM 42.1 °F 37.7 °F 41.0 °F 96% 30.23 in 10.0 mi East 6.9 mph - 0.07 in Rain Light Rain
2:20 AM 42.8 °F 41.1 °F 41.0 °F 93% 30.23 in 7.0 mi NE 3.5 mph - 0.02 in Rain Light Rain
2:54 AM 42.1 °F - 42.1 °F 100% 30.23 in 8.0 mi Calm Calm - 0.05 in Rain Light Rain
3:07 AM 42.8 °F 41.1 °F 41.0 °F 93% 30.22 in 8.0 mi ENE 3.5 mph - 0.01 in Rain Light Rain
3:45 AM 42.8 °F 38.6 °F 41.0 °F 93% 30.22 in 10.0 mi NE 6.9 mph - 0.03 in Rain Light Rain
3:54 AM 42.1 °F 38.4 °F 41.0 °F 96% 30.22 in 8.0 mi NE 5.8 mph - 0.03 in Rain Light Rain
4:21 AM 41.0 °F 38.0 °F 41.0 °F 100% 30.21 in 8.0 mi ENE 4.6 mph - 0.03 in Rain Light Rain
4:54 AM 41.0 °F 35.8 °F 39.9 °F 96% 30.19 in 10.0 mi ENE 8.1 mph - 0.04 in Rain Light Rain
5:54 AM 39.0 °F 31.8 °F 37.9 °F 96% 30.22 in 9.0 mi NE 11.5 mph - 0.05 in Rain Light Rain
6:19 AM 37.4 °F 31.4 °F 37.4 °F 100% 30.21 in 7.0 mi NE 8.1 mph 17.3 mph 0.03 in Rain Light Rain
6:24 AM 37.4 °F 31.4 °F 37.4 °F 100% 30.21 in 7.0 mi NE 8.1 mph - 0.03 in Rain Light Rain
6:54 AM 37.9 °F 30.9 °F 37.0 °F 97% 30.22 in 7.0 mi NE 10.4 mph - 0.08 in Rain Light Rain
7:54 AM 37.9 °F 32.1 °F 37.0 °F 97% 30.26 in 7.0 mi North 8.1 mph - 0.06 in Rain Light Rain
8:54 AM 39.0 °F 32.3 °F 37.9 °F 96% 30.28 in 8.0 mi NE 10.4 mph - 0.04 in Rain Light Rain
9:54 AM 39.0 °F 31.4 °F 37.9 °F 96% 30.30 in 7.0 mi NNE 12.7 mph - 0.03 in Rain Light Rain
10:54 AM 41.0 °F 38.0 °F 39.9 °F 96% 30.29 in 10.0 mi NE 4.6 mph - 0.03 in Rain Light Rain
11:54 AM 39.9 °F 31.8 °F 39.0 °F 97% 30.27 in 9.0 mi NNE 15.0 mph 18.4 mph 0.02 in Rain Light Rain
12:54 PM 39.9 °F 32.9 °F 39.0 °F 97% 30.24 in 9.0 mi NNE 11.5 mph - 0.06 in Rain Light Rain
1:54 PM 39.9 °F 33.9 °F 39.0 °F 97% 30.22 in 7.0 mi ENE 9.2 mph - 0.04 in Rain Light Rain
2:54 PM 39.9 °F 33.4 °F 39.0 °F 97% 30.22 in 7.0 mi NNE 10.4 mph - 0.08 in Rain Light Rain
3:54 PM 39.0 °F 32.3 °F 37.9 °F 96% 30.23 in 3.0 mi NNE 10.4 mph - 0.06 in Rain Light Rain
4:54 PM 39.0 °F 32.8 °F 37.9 °F 96% 30.23 in 4.0 mi NNE 9.2 mph - 0.10 in Rain Rain
5:10 PM 39.2 °F 32.5 °F 37.4 °F 93% 30.20 in 2.5 mi NE 10.4 mph - 0.04 in Rain Rain
5:20 PM 39.2 °F 33.6 °F 37.4 °F 93% 30.21 in 5.0 mi NE 8.1 mph - 0.06 in Rain Rain
5:54 PM 39.0 °F 34.8 °F 37.9 °F 96% 30.22 in 4.0 mi NE 5.8 mph - 0.12 in Rain Rain
6:54 PM 37.9 °F 32.1 °F 37.0 °F 97% 30.21 in 4.0 mi ENE 8.1 mph - 0.13 in Rain Rain
7:54 PM 37.0 °F 29.3 °F 37.0 °F 100% 30.20 in 6.0 mi NNE 11.5 mph - 0.08 in Rain Rain
8:54 PM 37.0 °F 29.8 °F 37.0 °F 100% 30.18 in 6.0 mi NNE 10.4 mph - 0.18 in Rain Light Rain
9:54 PM 37.0 °F 29.8 °F 36.0 °F 96% 30.15 in 4.0 mi NNE 10.4 mph - 0.10 in Rain Light Rain
10:54 PM 37.0 °F 30.4 °F 36.0 °F 96% 30.14 in 5.0 mi NNE 9.2 mph - 0.02 in Rain Light Rain
11:54 PM 37.0 °F 31.0 °F 37.0 °F 100% 30.12 in 6.0 mi NNE 8.1 mph - 0.06 in Rain Light Rain